TimeEET,TemperatureF,Dew PointF,Humidity,Sea Level PressureIn,VisibilityMPH,Wind Direction,Wind SpeedMPH,Gust SpeedMPH,PrecipitationIn,Events,Conditions,WindDirDegrees,DateUTC
12:50 AM,42.8,23.0,46,30.01,6.2,NNW,21.9,35.7,N/A,,Scattered Clouds,340,2013-01-07 22:50:00
1:50 AM,42.8,24.8,49,30.06,6.2,North,18.4,-,N/A,,Scattered Clouds,350,2013-01-07 23:50:00
2:50 AM,41.0,28.4,61,30.09,6.2,NNE,15.0,26.5,N/A,,Mostly Cloudy,20,2013-01-08 00:50:00
3:50 AM,39.2,30.2,70,30.09,6.2,NNE,17.3,-,N/A,,Mostly Cloudy,20,2013-01-08 01:50:00
4:50 AM,37.4,30.2,75,30.09,6.2,NNE,11.5,-,N/A,,Scattered Clouds,20,2013-01-08 02:50:00
5:20 AM,39.2,30.2,70,30.09,6.2,NNE,16.1,-,N/A,,Scattered Clouds,20,2013-01-08 03:20:00
5:50 AM,37.4,30.2,75,30.12,6.2,North,12.7,24.2,N/A,,Mostly Cloudy,350,2013-01-08 03:50:00
6:20 AM,37.4,30.2,75,30.12,6.2,NNW,16.1,-,N/A,,Mostly Cloudy,340,2013-01-08 04:20:00
6:50 AM,35.6,30.2,81,30.12,6.2,North,9.2,-,N/A,,Mostly Cloudy,10,2013-01-08 04:50:00
7:20 AM,35.6,30.2,81,30.15,6.2,North,6.9,-,N/A,,Mostly Cloudy,360,2013-01-08 05:20:00
7:50 AM,35.6,28.4,75,30.15,5.0,North,12.7,-,N/A,,Mostly Cloudy,350,2013-01-08 05:50:00
8:20 AM,35.6,30.2,81,30.15,6.2,North,13.8,-,N/A,,Scattered Clouds,350,2013-01-08 06:20:00
8:50 AM,35.6,28.4,75,30.15,5.6,NNW,13.8,-,N/A,,Scattered Clouds,340,2013-01-08 06:50:00
9:20 AM,35.6,30.2,81,30.18,4.3,NW,13.8,-,N/A,Snow,Snow,320,2013-01-08 07:20:00
9:50 AM,33.8,30.2,87,30.18,3.7,NW,11.5,-,N/A,,Mostly Cloudy,320,2013-01-08 07:50:00
10:20 AM,35.6,30.2,81,30.21,3.7,NW,11.5,-,N/A,,Scattered Clouds,320,2013-01-08 08:20:00
10:50 AM,37.4,32.0,81,30.21,1.9,NW,10.4,-,N/A,Snow,Snow,310,2013-01-08 08:50:00
11:20 AM,35.6,32.0,87,30.21,5.0,NW,10.4,-,N/A,,Mostly Cloudy,310,2013-01-08 09:20:00
11:50 AM,35.6,30.2,81,30.21,6.2,NNW,8.1,-,N/A,,Mostly Cloudy,330,2013-01-08 09:50:00
12:20 PM,39.2,30.2,70,30.21,5.6,NW,9.2,-,N/A,,Mostly Cloudy,310,2013-01-08 10:20:00
12:50 PM,37.4,30.2,75,30.18,5.6,NNW,11.5,-,N/A,,Mostly Cloudy,330,2013-01-08 10:50:00
1:20 PM,37.4,30.2,75,30.18,4.3,NNW,12.7,-,N/A,,Mostly Cloudy,330,2013-01-08 11:20:00
1:50 PM,37.4,28.4,70,30.18,2.5,NW,9.2,-,N/A,Snow,Light Snow,310,2013-01-08 11:50:00
2:20 PM,37.4,28.4,70,30.18,4.3,NNW,12.7,-,N/A,,Mostly Cloudy,340,2013-01-08 12:20:00
2:50 PM,39.2,28.4,65,30.18,6.2,NNW,11.5,-,N/A,,Scattered Clouds,340,2013-01-08 12:50:00
3:20 PM,39.2,26.6,61,30.18,6.2,NNW,11.5,-,N/A,,Scattered Clouds,340,2013-01-08 13:20:00
3:50 PM,39.2,26.6,61,30.18,6.2,NNW,15.0,-,N/A,,Scattered Clouds,340,2013-01-08 13:50:00
4:20 PM,39.2,26.6,61,30.18,6.2,NNW,16.1,-,N/A,,Scattered Clouds,330,2013-01-08 14:20:00
4:50 PM,37.4,24.8,60,30.18,6.2,NNW,12.7,-,N/A,,Scattered Clouds,330,2013-01-08 14:50:00
5:20 PM,37.4,24.8,60,30.18,6.2,NW,10.4,-,N/A,,Partly Cloudy,320,2013-01-08 15:20:00
5:50 PM,35.6,24.8,65,30.18,6.2,NW,6.9,-,N/A,,Partly Cloudy,320,2013-01-08 15:50:00
6:20 PM,35.6,24.8,65,30.18,6.2,NW,6.9,-,N/A,,Partly Cloudy,320,2013-01-08 16:20:00
6:50 PM,35.6,23.0,60,30.21,6.2,NW,5.8,-,N/A,,Partly Cloudy,310,2013-01-08 16:50:00
7:20 PM,35.6,23.0,60,30.21,6.2,NW,5.8,-,N/A,,Partly Cloudy,310,2013-01-08 17:20:00
7:50 PM,33.8,23.0,65,30.21,6.2,WNW,4.6,-,N/A,,Partly Cloudy,290,2013-01-08 17:50:00
8:20 PM,33.8,23.0,65,30.21,6.2,NW,6.9,-,N/A,,Partly Cloudy,310,2013-01-08 18:20:00
8:50 PM,35.6,21.2,56,30.21,-9999.0,NW,4.6,-,N/A,,Clear,320,2013-01-08 18:50:00
9:20 PM,33.8,21.2,60,30.21,6.2,NW,6.9,-,N/A,,Partly Cloudy,320,2013-01-08 19:20:00
9:50 PM,35.6,21.2,56,30.21,-9999.0,NW,5.8,-,N/A,,Clear,320,2013-01-08 19:50:00
10:20 PM,35.6,19.4,52,30.21,-9999.0,Calm,Calm,-,N/A,,Clear,0,2013-01-08 20:20:00
10:50 PM,33.8,21.2,60,30.21,-9999.0,Calm,Calm,-,N/A,,Clear,0,2013-01-08 20:50:00
11:50 PM,35.6,21.2,56,30.21,-9999.0,NNW,4.6,-,N/A,,Clear,330,2013-01-08 21:50:00